GW3201 Weather Reports


time (UTC)temp
F
wind
direction
speed
knots
gust
knots
rain 1hr
in
rain 24hr
in
rain mn
in
humidity
%
barometer
mb
20260902034521 61 205 4.3 12.2 0.00 0.00 0.00 74 1016.6
20260902034001 61 250 3.5 12.2 0.00 0.00 0.00 74 1016.5
20260902033506 61 242 6.1 13.0 0.00 0.00 0.00 73 1016.4
20260902033010 61 235 6.1 13.0 0.00 0.00 0.00 73 1016.4
20260902032507 61 248 5.2 12.2 0.00 0.00 0.00 72 1016.2
20260902032012 61 253 5.2 13.0 0.00 0.00 0.00 71 1016.1
20260902031518 62 213 5.2 13.9 0.00 0.00 0.00 70 1016.1
20260902031010 62 296 5.2 13.9 0.00 0.00 0.00 69 1016.0
20260902030510 62 218 7.8 13.9 0.00 0.00 0.00 68 1016.0
20260902030025 62 266 7.0 13.9 0.00 0.00 0.00 67 1016.0
20260902025513 62 235 4.3 13.0 0.00 0.00 0.00 66 1016.0
20260902025013 62 251 4.3 13.0 0.00 0.00 0.00 66 1016.0
20260902024525 62 154 4.3 12.2 0.00 0.00 0.00 65 1015.9
20260902024014 63 227 7.8 12.2 0.00 0.00 0.00 65 1016.0
20260902023516 63 183 5.2 10.4 0.00 0.00 0.00 64 1015.9
20260902023036 63 233 4.3 14.8 0.00 0.00 0.00 64 1015.8
20260902022504 63 274 7.0 14.8 0.00 0.00 0.00 63 1015.8
20260902022006 63 228 3.5 10.4 0.00 0.00 0.00 63 1015.8
20260902021514 64 263 3.5 12.2 0.00 0.00 0.00 63 1015.7
20260902021009 64 274 2.6 14.8 0.00 0.00 0.00 62 1015.6
20260902020507 64 349 6.1 14.8 0.00 0.00 0.00 62 1015.6
20260902020018 64 268 6.1 10.4 0.00 0.00 0.00 61 1015.4
20260902015510 65 179 2.6 10.4 0.00 0.00 0.00 61 1015.5
20260902015012 65 318 3.5 15.6 0.00 0.00 0.00 60 1015.4
20260902014535 65 253 5.2 16.5 0.00 0.00 0.00 60 1015.5
20260902014013 65 302 8.7 16.5 0.00 0.00 0.00 59 1015.5
20260902013516 66 253 5.2 12.2 0.00 0.00 0.00 59 1015.4
20260902013030 66 285 2.6 13.9 0.00 0.00 0.00 59 1015.4
20260902012514 66 257 7.8 13.9 0.00 0.00 0.00 59 1015.4
20260902012017 66 174 8.7 13.9 0.00 0.00 0.00 58 1015.3
20260902011532 67 283 6.1 13.0 0.00 0.00 0.00 57 1015.3
20260902011017 67 259 3.5 10.4 0.00 0.00 0.00 57 1015.3
20260902010504 67 254 3.5 10.4 0.00 0.00 0.00 57 1015.3
20260902010028 67 268 5.2 13.9 0.00 0.00 0.00 56 1015.3
20260902005506 67 223 6.1 13.9 0.00 0.00 0.00 56 1015.3
20260902005009 67 266 6.1 13.0 0.00 0.00 0.00 56 1015.3
20260902004527 67 200 4.3 13.0 0.00 0.00 0.00 55 1015.3
20260902004012 68 224 6.1 13.9 0.00 0.00 0.00 55 1015.3
20260902003513 68 264 3.5 13.9 0.00 0.00 0.00 55 1015.2
20260902003034 68 157 4.3 12.2 0.00 0.00 0.00 55 1015.2
20260902002515 68 242 3.5 12.2 0.00 0.00 0.00 54 1015.1
20260902002005 68 230 3.5 8.7 0.00 0.00 0.00 53 1015.2
20260902001511 68 238 4.3 8.7 0.00 0.00 0.00 51 1015.3
20260902001004 68 267 5.2 10.4 0.00 0.00 0.00 51 1015.3
20260902000505 68 241 3.5 10.4 0.00 0.00 0.00 52 1015.2
20260902000008 68 253 3.5 8.7 0.00 0.00 0.00 52 1015.3
20260901235502 68 239 3.5 11.3 0.00 0.00 0.00 52 1015.3
20260901235002 68 219 4.3 13.0 0.00 0.00 0.00 52 1015.3
20260901234503 68 347 7.0 13.0 0.00 0.00 0.00 52 1015.3
20260901234002 68 281 6.1 10.4 0.00 0.00 0.00 53 1015.3
20260901233503 69 253 5.2 13.9 0.00 0.00 0.00 52 1015.2
20260901233004 69 167 3.5 13.9 0.00 0.00 0.00 52 1015.3
20260901232503 69 338 4.3 18.2 0.00 0.00 0.00 52 1015.2
20260901232003 68 295 4.3 18.2 0.00 0.00 0.00 52 1015.3
20260901231506 68 224 10.4 15.6 0.00 0.00 0.00 51 1015.4
20260901231004 69 264 6.1 14.8 0.00 0.00 0.00 50 1015.3
20260901230505 69 236 3.5 13.0 0.00 0.00 0.00 50 1015.4
20260901230012 69 212 5.2 14.8 0.00 0.00 0.00 50 1015.5
20260901225505 69 305 5.2 14.8 0.00 0.00 0.00 50 1015.4
20260901225007 69 224 7.0 13.9 0.00 0.00 0.00 49 1015.5
20260901224519 69 305 4.3 15.6 0.00 0.00 0.00 50 1015.4
20260901224001 70 271 7.0 15.6 0.00 0.00 0.00 50 1015.4
20260901223502 69 244 5.2 13.9 0.00 0.00 0.00 50 1015.4
20260901223005 69 173 2.6 13.9 0.00 0.00 0.00 51 1015.4
20260901222503 69 233 5.2 13.9 0.00 0.00 0.00 51 1015.5
20260901222002 69 28 4.3 13.9 0.00 0.00 0.00 51 1015.5
20260901221504 70 320 6.1 13.9 0.00 0.00 0.00 52 1015.6
20260901221004 69 276 6.1 11.3 0.00 0.00 0.00 52 1015.7
20260901220504 69 294 4.3 13.0 0.00 0.00 0.00 53 1015.7
20260901220004 69 289 5.2 13.0 0.00 0.00 0.00 53 1015.7
20260901215505 69 318 4.3 13.0 0.00 0.00 0.00 52 1015.8
20260901215004 69 278 3.5 13.0 0.00 0.00 0.00 53 1015.8
20260901214507 70 281 4.3 10.4 0.00 0.00 0.00 52 1015.8
20260901214004 69 304 5.2 13.0 0.00 0.00 0.00 53 1015.8
20260901213508 69 291 3.5 13.0 0.00 0.00 0.00 52 1015.9
20260901213016 70 343 4.3 13.9 0.00 0.00 0.00 51 1015.9
20260901212509 70 262 2.6 13.9 0.00 0.00 0.00 49 1015.8
20260901212013 70 229 8.7 13.9 0.00 0.00 0.00 47 1015.8
20260901211503 70 206 5.2 14.8 0.00 0.00 0.00 47 1015.8
20260901211003 70 295 4.3 14.8 0.00 0.00 0.00 48 1015.8
20260901210503 70 260 5.2 9.6 0.00 0.00 0.00 49 1015.9
20260901210003 70 243 3.5 9.6 0.00 0.00 0.00 50 1015.9
20260901205506 70 245 5.2 12.2 0.00 0.00 0.00 50 1015.9
20260901205002 70 242 6.1 12.2 0.00 0.00 0.00 49 1015.8
20260901204510 70 282 2.6 10.4 0.00 0.00 0.00 48 1015.8
20260901204003 70 242 2.6 10.4 0.00 0.00 0.00 48 1015.8
20260901203505 70 148 3.5 8.7 0.00 0.00 0.00 48 1015.8
20260901203018 69 266 2.6 9.6 0.00 0.00 0.00 48 1015.9
20260901202505 69 259 3.5 9.6 0.00 0.00 0.00 49 1016.0
20260901202008 69 261 3.5 12.2 0.00 0.00 0.00 50 1016.1
20260901201519 69 248 6.1 12.2 0.00 0.00 0.00 50 1016.2
20260901201008 69 250 3.5 9.6 0.00 0.00 0.00 50 1016.1
20260901200515 69 249 2.6 9.6 0.00 0.00 0.00 50 1016.2
20260901200026 68 324 2.6 8.7 0.00 0.00 0.00 51 1016.1
20260901195504 68 337 2.6 8.7 0.00 0.00 0.00 52 1016.3
20260901195004 68 250 4.3 9.6 0.00 0.00 0.00 53 1016.2
20260901194504 68 302 3.5 9.6 0.00 0.00 0.00 53 1016.2
20260901194019 68 332 2.6 10.4 0.00 0.00 0.00 54 1016.3
20260901193503 67 265 2.6 11.3 0.00 0.00 0.00 55 1016.3
20260901193011 68 294 4.3 11.3 0.00 0.00 0.00 54 1016.3
20260901192503 67 304 3.5 10.4 0.00 0.00 0.00 56 1016.4
20260901192005 67 295 4.3 10.4 0.00 0.00 0.00 55 1016.4
20260901191517 67 269 3.5 12.2 0.00 0.00 0.00 55 1016.4
20260901191007 66 305 3.5 12.2 0.00 0.00 0.00 56 1016.3
20260901190508 66 241 6.1 12.2 0.00 0.00 0.00 57 1016.4
20260901190025 66 283 5.2 9.6 0.00 0.00 0.00 57 1016.4
20260901185517 66 314 4.3 9.6 0.00 0.00 0.00 56 1016.5
20260901185013 67 238 4.3 11.3 0.00 0.00 0.00 55 1016.5
20260901184527 67 232 4.3 11.3 0.00 0.00 0.00 57 1016.5
20260901184014 67 176 3.5 7.8 0.00 0.00 0.00 58 1016.5
20260901183506 66 172 2.6 7.0 0.00 0.00 0.00 57 1016.5
20260901183010 65 300 1.7 7.0 0.00 0.00 0.00 57 1016.6
20260901182503 65 229 3.5 7.0 0.00 0.00 0.00 58 1016.5
20260901182004 65 304 3.5 12.2 0.00 0.00 0.00 58 1016.5
20260901181516 66 278 3.5 12.2 0.00 0.00 0.00 57 1016.5
20260901181011 66 275 4.3 12.2 0.00 0.00 0.00 59 1016.5
20260901180508 66 257 2.6 9.6 0.00 0.00 0.00 59 1016.4
20260901180017 66 250 4.3 12.2 0.00 0.00 0.00 59 1016.4
20260901175508 66 252 6.1 12.2 0.00 0.00 0.00 58 1016.3
20260901175008 66 233 4.3 7.8 0.00 0.00 0.00 59 1016.3
20260901174524 66 216 2.6 7.8 0.00 0.00 0.00 60 1016.2
20260901174010 65 190 2.6 9.6 0.00 0.00 0.00 61 1016.1
20260901173513 65 251 3.5 10.4 0.00 0.00 0.00 61 1016.2
20260901173035 66 178 2.6 10.4 0.00 0.00 0.00 59 1016.2
20260901172515 66 303 4.3 8.7 0.00 0.00 0.00 60 1016.1
20260901172013 66 261 3.5 11.3 0.00 0.00 0.00 58 1016.0
20260901171509 65 255 1.7 11.3 0.00 0.00 0.00 59 1016.0
20260901171007 65 215 5.2 11.3 0.00 0.00 0.00 59 1016.0
20260901170504 65 259 6.1 11.3 0.00 0.00 0.00 59 1015.9
20260901170029 65 220 6.1 12.2 0.00 0.00 0.00 58 1016.0
20260901165506 65 158 6.1 12.2 0.00 0.00 0.00 62 1015.9
20260901165008 65 237 3.5 8.7 0.00 0.00 0.00 63 1015.9
20260901164521 64 211 4.3 8.7 0.00 0.00 0.00 65 1015.9
20260901164009 64 248 3.5 7.8 0.00 0.00 0.00 64 1015.8
20260901163510 64 266 3.5 9.6 0.00 0.00 0.00 66 1015.8
20260901163035 63 233 3.5 9.6 0.00 0.00 0.00 67 1016.0
20260901162517 63 227 2.6 9.6 0.00 0.00 0.00 69 1016.0
20260901162011 63 250 3.5 9.6 0.00 0.00 0.00 70 1016.0
20260901161529 63 233 2.6 9.6 0.00 0.00 0.00 71 1015.8
20260901161020 63 235 3.5 9.6 0.00 0.00 0.00 70 1015.8
20260901160514 63 165 2.6 7.0 0.00 0.00 0.00 72 1015.8
20260901160031 62 244 2.6 7.0 0.00 0.00 0.00 74 1015.7
20260901155505 61 245 0.9 7.0 0.00 0.00 0.00 74 1015.7
20260901155005 61 257 3.5 7.8 0.00 0.00 0.00 74 1015.6
20260901154516 62 230 1.7 11.3 0.00 0.00 0.00 74 1015.5
20260901154011 62 233 5.2 11.3 0.00 0.00 0.00 74 1015.5
20260901153511 61 249 2.6 9.6 0.00 0.00 0.00 74 1015.5
20260901153018 61 145 3.5 7.0 0.00 0.00 0.00 75 1015.4
20260901152511 61 255 3.5 8.7 0.00 0.00 0.00 74 1015.4
20260901152002 61 174 0.9 8.7 0.00 0.00 0.00 75 1015.3
20260901151503 61 243 3.5 9.6 0.00 0.00 0.00 75 1015.3
20260901151004 61 236 6.1 9.6 0.00 0.00 0.00 75 1015.2
20260901150503 62 243 2.6 7.8 0.00 0.00 0.00 75 1015.2
20260901150007 61 252 3.5 7.8 0.00 0.00 0.00 75 1015.2
20260901145505 61 205 2.6 5.2 0.00 0.00 0.00 75 1015.2
20260901145005 61 170 3.5 8.7 0.00 0.00 0.00 74 1015.0
20260901144513 61 240 3.5 8.7 0.00 0.00 0.00 73 1015.0
20260901144005 61 254 2.6 8.7 0.00 0.00 0.00 72 1015.0
20260901143508 61 243 2.6 7.8 0.00 0.00 0.00 73 1014.8
20260901143017 61 295 2.6 7.0 0.00 0.00 0.00 73 1014.9
20260901142508 61 248 2.6 6.1 0.00 0.00 0.00 73 1014.9
20260901142011 61 234 2.6 6.1 0.00 0.00 0.00 75 1014.8
20260901141503 60 213 1.7 5.2 0.00 0.00 0.00 74 1014.8
20260901141003 60 176 0.9 5.2 0.00 0.00 0.00 76 1014.7
20260901140504 60 250 1.7 9.6 0.00 0.00 0.00 76 1014.6
20260901140007 60 273 5.2 9.6 0.00 0.00 0.00 75 1014.4
20260901135503 60 293 4.3 7.0 0.00 0.00 0.00 77 1014.5
20260901135004 59 274 2.6 5.2 0.00 0.00 0.00 78 1014.4
20260901134507 59 252 0.9 4.3 0.00 0.00 0.00 78 1014.2
20260901134009 59 304 0.9 4.3 0.00 0.00 0.00 79 1014.2
20260901133506 59 245 1.7 6.1 0.00 0.00 0.00 79 1014.2
20260901133012 59 162 1.7 6.1 0.00 0.00 0.00 79 1014.1
20260901132505 59 263 2.6 7.0 0.00 0.00 0.00 79 1014.0
20260901132009 59 277 0.9 7.0 0.00 0.00 0.00 79 1014.0
20260901131521 59 235 2.6 7.0 0.00 0.00 0.00 79 1013.9
20260901131008 59 259 1.7 6.1 0.00 0.00 0.00 79 1013.9
20260901130512 59 237 0.9 6.1 0.00 0.00 0.00 79 1013.9
20260901130027 59 200 1.7 6.1 0.00 0.00 0.00 78 1014.1
20260901125503 59 247 2.6 6.1 0.00 0.00 0.00 78 1013.9
20260901125003 59 226 1.7 6.1 0.00 0.00 0.00 78 1013.9
20260901124507 59 231 2.6 6.1 0.00 0.00 0.00 78 1013.8
20260901124004 59 290 1.7 6.1 0.00 0.00 0.00 78 1013.8
20260901123506 59 306 1.7 8.7 0.00 0.00 0.00 77 1013.8
20260901123027 59 246 1.7 8.7 0.00 0.00 0.00 77 1013.8
20260901122504 59 258 3.5 7.8 0.00 0.00 0.00 78 1013.7
20260901122006 59 139 2.6 7.8 0.00 0.00 0.00 78 1013.7
20260901121514 59 241 2.6 7.8 0.00 0.00 0.00 78 1013.6
20260901121007 59 238 3.5 9.6 0.00 0.00 0.00 78 1013.6
20260901120511 59 166 4.3 9.6 0.00 0.00 0.00 77 1013.6
20260901120022 59 251 3.5 7.0 0.00 0.00 0.00 77 1013.5
20260901115509 59 245 3.5 10.4 0.00 0.00 0.00 77 1013.6
20260901115009 59 248 3.5 10.4 0.00 0.00 0.00 77 1013.7
20260901114537 59 235 3.5 7.8 0.00 0.00 0.00 77 1013.7
20260901114011 59 279 3.5 8.7 0.00 0.00 0.00 77 1013.7
20260901113513 59 229 2.6 8.7 0.00 0.00 0.00 76 1013.8
20260901113013 60 250 2.6 10.4 0.00 0.00 0.00 75 1013.8
20260901112505 60 221 3.5 10.4 0.00 0.00 0.00 75 1013.8
20260901112003 60 231 5.2 10.4 0.00 0.00 0.00 75 1013.9
20260901111510 60 245 4.3 8.7 0.00 0.00 0.00 74 1013.9
20260901111006 60 230 3.5 9.6 0.00 0.00 0.00 74 1013.8
20260901110508 60 247 3.5 9.6 0.00 0.00 0.00 74 1013.7
20260901110017 60 266 2.6 7.0 0.00 0.00 0.00 74 1013.8
20260901105509 59 262 2.6 7.0 0.00 0.00 0.00 74 1013.8
20260901105011 59 257 2.6 8.7 0.00 0.00 0.00 74 1013.8
20260901104524 59 238 3.5 8.7 0.00 0.00 0.00 74 1013.7
20260901104013 59 239 2.6 8.7 0.00 0.00 0.00 74 1013.7
20260901103513 59 294 1.7 11.3 0.00 0.00 0.00 74 1013.6
20260901103031 59 239 2.6 11.3 0.00 0.00 0.00 73 1013.6
20260901102512 59 203 1.7 7.8 0.00 0.00 0.00 74 1013.5
20260901102015 59 296 2.6 8.7 0.00 0.00 0.00 74 1013.5
20260901101532 59 245 3.5 8.7 0.00 0.00 0.00 74 1013.5
20260901101005 59 225 4.3 8.7 0.00 0.00 0.00 74 1013.5
20260901100504 59 256 2.6 8.7 0.00 0.00 0.00 74 1013.4
20260901100013 59 300 1.7 10.4 0.00 0.00 0.00 74 1013.4
20260901095509 59 240 3.5 10.4 0.00 0.00 0.00 74 1013.5
20260901095007 59 248 3.5 11.3 0.00 0.00 0.00 73 1013.5
20260901094527 59 233 3.5 11.3 0.00 0.00 0.00 73 1013.5
20260901094008 59 245 4.3 10.4 0.00 0.00 0.00 73 1013.5
20260901093510 59 252 3.5 10.4 0.00 0.00 0.00 73 1013.6
20260901093029 59 271 3.5 10.4 0.00 0.00 0.00 73 1013.6
20260901092514 59 258 3.5 10.4 0.00 0.00 0.00 73 1013.6
20260901092004 59 269 3.5 10.4 0.00 0.00 0.00 73 1013.7
20260901091505 59 271 3.5 10.4 0.00 0.00 0.00 73 1013.6
20260901091003 59 214 4.3 9.6 0.00 0.00 0.00 73 1013.7
20260901090502 59 248 4.3 13.9 0.00 0.00 0.00 73 1013.7
20260901090013 59 176 6.1 13.9 0.00 0.00 0.00 73 1013.7
20260901085504 59 235 4.3 12.2 0.00 0.00 0.00 73 1013.7
20260901085007 59 305 6.1 12.2 0.00 0.00 0.00 73 1013.7
20260901084514 59 241 5.2 13.0 0.00 0.00 0.00 73 1013.7
20260901084010 59 120 2.6 13.0 0.00 0.00 0.00 73 1013.8
20260901083506 59 248 4.3 9.6 0.00 0.00 0.00 73 1013.8
20260901083022 59 180 5.2 10.4 0.00 0.00 0.00 73 1013.7
20260901082509 59 253 5.2 13.0 0.00 0.00 0.00 73 1013.7
20260901082009 59 193 6.1 13.0 0.00 0.00 0.00 73 1013.7
20260901081525 59 230 1.7 9.6 0.00 0.00 0.00 73 1013.7
20260901081015 59 238 2.6 9.6 0.00 0.00 0.00 74 1013.7
20260901080517 59 249 3.5 8.7 0.00 0.00 0.00 74 1013.7
20260901080006 59 205 2.6 9.6 0.00 0.00 0.00 74 1013.7
20260901075504 59 271 1.7 12.2 0.00 0.00 0.00 74 1013.6
20260901075004 59 221 5.2 12.2 0.00 0.00 0.00 74 1013.6
20260901074515 59 220 3.5 10.4 0.00 0.00 0.00 73 1013.6
20260901074010 59 243 4.3 10.4 0.00 0.00 0.00 73 1013.6
20260901073506 59 153 4.3 10.4 0.00 0.00 0.00 73 1013.6
20260901073016 59 219 5.2 12.2 0.00 0.00 0.00 73 1013.6
20260901072510 59 186 4.3 12.2 0.00 0.00 0.00 74 1013.5
20260901072007 59 281 4.3 10.4 0.00 0.00 0.00 74 1013.6
20260901071523 58 243 5.2 9.6 0.00 0.00 0.00 74 1013.6
20260901071013 58 227 3.5 8.7 0.00 0.00 0.00 75 1013.5
20260901070515 58 256 2.6 8.7 0.00 0.00 0.00 75 1013.5
20260901070033 58 311 2.6 8.7 0.00 0.00 0.00 75 1013.5
20260901065515 59 291 2.6 11.3 0.00 0.00 0.00 74 1013.6
20260901065015 59 232 6.1 11.3 0.00 0.00 0.00 74 1013.7
20260901064530 59 236 3.5 12.2 0.00 0.00 0.00 74 1013.7
20260901064006 59 279 2.6 12.2 0.00 0.00 0.00 74 1013.6
20260901063506 59 240 4.3 12.2 0.00 0.00 0.00 74 1013.6
20260901063014 59 243 2.6 10.4 0.00 0.00 0.00 74 1013.6
20260901062508 59 228 1.7 10.4 0.00 0.00 0.00 74 1013.7
20260901062011 59 261 3.5 13.9 0.00 0.00 0.00 74 1013.8
20260901061521 59 240 4.3 13.9 0.00 0.00 0.00 74 1013.8
20260901061010 59 215 3.5 12.2 0.00 0.00 0.00 74 1013.8
20260901060509 59 283 3.5 12.2 0.00 0.00 0.00 75 1013.8
20260901060028 59 226 2.6 8.7 0.00 0.00 0.00 75 1013.8
20260901055514 59 266 4.3 7.8 0.00 0.00 0.00 75 1013.8
20260901055011 58 252 3.5 9.6 0.00 0.00 0.00 75 1013.8
20260901054529 58 236 3.5 9.6 0.00 0.00 0.00 75 1013.9
20260901054014 58 259 5.2 9.6 0.00 0.00 0.00 75 1013.7
20260901053516 58 249 2.6 8.7 0.00 0.00 0.00 75 1013.6
20260901053035 58 235 2.6 11.3 0.00 0.00 0.00 75 1013.6
20260901052515 58 259 4.3 11.3 0.00 0.00 0.00 75 1013.5
20260901052017 58 244 1.7 7.0 0.00 0.00 0.00 75 1013.6
20260901051514 58 233 2.6 13.9 0.00 0.00 0.00 75 1013.5
20260901051011 58 296 2.6 14.8 0.00 0.00 0.00 75 1013.5
20260901050510 58 228 5.2 14.8 0.00 0.00 0.00 75 1013.4
20260901050024 58 276 6.1 10.4 0.00 0.00 0.00 75 1013.4
20260901045512 58 326 3.5 9.6 0.00 0.00 0.00 75 1013.4
20260901045015 58 241 2.6 7.0 0.00 0.00 0.00 75 1013.4
20260901044536 58 227 2.6 7.0 0.00 0.00 0.00 75 1013.4
20260901044015 59 233 2.6 5.2 0.00 0.00 0.00 74 1013.4
20260901043516 59 285 2.6 8.7 0.00 0.00 0.00 74 1013.5
20260901043032 59 295 4.3 8.7 0.00 0.00 0.00 74 1013.4
20260901042516 59 250 1.7 9.6 0.00 0.00 0.00 75 1013.5
20260901042015 59 266 2.6 9.6 0.00 0.00 0.00 75 1013.5
20260901041535 59 255 3.5 9.6 0.00 0.00 0.00 75 1013.4
20260901041018 59 298 0.9 10.4 0.00 0.00 0.00 75 1013.4
20260901040519 59 285 2.6 10.4 0.00 0.00 0.00 75 1013.3
20260901040035 59 301 5.2 10.4 0.00 0.00 0.00 75 1013.3
20260901035507 59 213 4.3 8.7 0.00 0.00 0.00 75 1013.3
20260901035008 59 302 1.7 8.7 0.00 0.00 0.00 75 1013.3